User: anonymous   Login
Location: Unspecified
(0.0000°N, 0.0000°E)
Time: 07:06:26
(UTC+00:00)
Language:

USA 229 - Orbit

View from above orbital plane
View from above orbital plane
View from above satellite
View from above satellite

Ground track
Ground track

The orbit data is extracted from the following two-line orbital elements,

1 37386U 11014A   18047.20169257 0.00000000  00000-0  00000-0 0    09
2 37386  63.4353 115.4876 0090000   3.2910 356.7090 13.40747286    01
Epoch (UTC): 16 February 2018 04:50:26
Eccentricity: 0.0090000
inclination: 63.4353°
perigee height: 1039 km
apogee height: 1174 km
right ascension of ascending node: 115.4876°
argument of perigee: 3.2910°
revolutions per day: 13.40747286
mean anomaly at epoch: 356.7090°
orbit number at epoch: 0

The dashed part of the orbit path shows where the satellite is in the earth's shadow,  

DLR